* Astronomy

Members Login
Post Info TOPIC: Asteroid 2013 AF4


L

Posts: 131433
Date:
Asteroid 2013 AF4
Permalink  
 


Orbital elements:
2013 AF4                                                 Earth MOID = 0.1691 AU
Epoch 2012 Sept. 30.0 TT = JDT 2456200.5                MPC
M 240.43118              (2000.0)            P               Q
n   0.63742500     Peri.   86.17898     -0.98999391     +0.04419581
a   1.3371598      Node    96.31939     -0.09258682     -0.92012255
e   0.1840570      Incl.    7.74877     +0.10648823     -0.38912879
P   1.55           H   22.4           G   0.15           U   8

MPEC 2013 - A28

Key to Orbital elements



__________________
Page 1 of 1  sorted by
 
Quick Reply

Please log in to post quick replies.



Create your own FREE Forum
Report Abuse
Powered by ActiveBoard